User: anonymous   Login
Location: Aurora Center
(43.5271°N, 98.5894°W)
Time: 07:44:53
(UTC-05:00)
Language:

Explorer 7 - Orbit

View from above orbital plane
View from above orbital plane
View from above satellite
View from above satellite

Ground track
Ground track

The orbit data is extracted from the following two-line orbital elements,

1 00022U 59009A   24200.66342562  .00014991  00000-0  84712-3 0  9998
2 00022  50.2785 262.4037 0111059 232.1868 126.8990 15.08114330694150
Epoch (UTC): 18 July 2024 15:55:19
Eccentricity: 0.0111059
inclination: 50.2785°
perigee height: 465 km
apogee height: 619 km
right ascension of ascending node: 262.4037°
argument of perigee: 232.1868°
revolutions per day: 15.08114330
mean anomaly at epoch: 126.8990°
orbit number at epoch: 69415

The dashed part of the orbit path shows where the satellite is in the earth's shadow,  

DLR